West Point Lake Weather Center

Moon Phase Calendar



West Point Lake Water Level
Online Cameras

 


      

Current Conditions in Rockwell Estates
9/25/2021 5:38:39 PM

77°F
Feels Like 77
Clear
Humidity
44%
Pressure
30.06"
Wind
4.6 mph (NNW)
Dew Point
54°F
UV Index
1/10 (Low)
Visibility
6 mi

Hourly Forecast

Date & Time Sat, Sep 25
5:00 PM
Sat, Sep 25
6:00 PM
Sat, Sep 25
7:00 PM
Sat, Sep 25
8:00 PM
Sat, Sep 25
9:00 PM
Sat, Sep 25
10:00 PM
Sat, Sep 25
11:00 PM
Sun, Sep 26
12:00 AM
Sun, Sep 26
1:00 AM
Sun, Sep 26
2:00 AM
Sun, Sep 26
3:00 AM
Sun, Sep 26
4:00 AM
Sun, Sep 26
5:00 AM
Sun, Sep 26
6:00 AM
Sun, Sep 26
7:00 AM
Sun, Sep 26
8:00 AM
Sun, Sep 26
9:00 AM
Sun, Sep 26
10:00 AM
Sun, Sep 26
11:00 AM
Sun, Sep 26
12:00 PM
Sun, Sep 26
1:00 PM
Sun, Sep 26
2:00 PM
Sun, Sep 26
3:00 PM
Sun, Sep 26
4:00 PM
Sun, Sep 26
5:00 PM
Sun, Sep 26
6:00 PM
Sun, Sep 26
7:00 PM
Sun, Sep 26
8:00 PM
Sun, Sep 26
9:00 PM
Sun, Sep 26
10:00 PM
Sun, Sep 26
11:00 PM
Mon, Sep 27
12:00 AM
Mon, Sep 27
1:00 AM
Mon, Sep 27
2:00 AM
Mon, Sep 27
3:00 AM
Mon, Sep 27
4:00 AM
Mon, Sep 27
5:00 AM
Mon, Sep 27
6:00 AM
Mon, Sep 27
7:00 AM
Mon, Sep 27
8:00 AM
Mon, Sep 27
9:00 AM
Mon, Sep 27
10:00 AM
Mon, Sep 27
11:00 AM
Mon, Sep 27
12:00 PM
Mon, Sep 27
1:00 PM
Mon, Sep 27
2:00 PM
Mon, Sep 27
3:00 PM
Mon, Sep 27
4:00 PM
Condition
Clear

Clear

Clear

Clear

Clear

Clear

Clear

Clear

Clear

Clear

Clear

Clear

Clear

Clear

Clear

Clear

Clear

Clouds

Clouds

Clouds

Clear

Clear

Clear

Clear

Clear

Clear

Clear

Clear

Clear

Clear

Clear

Clear

Clear

Clear

Clear

Clear

Clear

Clear

Clear

Clear

Clear

Clear

Clear

Clear

Clear

Clear

Clear

Clear
Temperature 78°F77°F76°F72°F69°F65°F60°F60°F59°F58°F58°F58°F57°F57°F57°F58°F63°F69°F74°F77°F79°F81°F82°F81°F81°F79°F73°F68°F66°F65°F63°F62°F62°F61°F61°F60°F60°F59°F59°F60°F65°F71°F76°F80°F82°F84°F84°F84°F
Feels Like 77°F77°F76°F72°F68°F64°F59°F59°F58°F57°F57°F57°F57°F57°F56°F57°F63°F69°F73°F77°F79°F81°F81°F81°F81°F79°F73°F68°F66°F64°F63°F62°F61°F61°F60°F60°F59°F59°F58°F59°F65°F71°F76°F80°F82°F83°F83°F83°F
Cloudiness 1%1%1%1%0%0%0%0%0%0%0%0%0%0%0%0%6%20%14%11%10%10%9%10%10%7%6%5%0%0%0%0%0%0%0%0%0%0%0%0%0%0%0%0%0%0%0%0%
Visibility 6 mi6 mi6 mi6 mi6 mi6 mi6 mi6 mi6 mi6 mi6 mi6 mi6 mi6 mi6 mi6 mi6 mi6 mi6 mi6 mi6 mi6 mi6 mi6 mi6 mi6 mi6 mi6 mi6 mi6 mi6 mi6 mi6 mi6 mi6 mi6 mi6 mi6 mi6 mi6 mi6 mi6 mi6 mi6 mi6 mi6 mi6 mi6 mi
Precipitation 0%0%0%0%0%0%0%0%0%0%0%0%0%0%0%0%0%0%0%0%0%0%0%0%0%0%0%0%0%0%0%0%0%0%0%0%0%0%0%0%0%0%0%0%0%0%0%0%
Humidity 43%44%48%54%59%66%73%73%75%77%80%83%87%90%92%91%78%66%57%50%46%42%41%40%41%51%64%66%69%73%76%78%79%80%80%81%81%82%83%82%72%62%55%49%44%40%38%38%
Dew Point 53°F54°F55°F55°F54°F53°F51°F51°F51°F51°F51°F52°F53°F54°F54°F55°F56°F57°F57°F57°F56°F56°F55°F55°F55°F59°F59°F56°F56°F55°F55°F55°F55°F55°F54°F54°F54°F53°F53°F54°F56°F57°F59°F59°F58°F57°F56°F55°F
Pressure 30.06"30.06"30.06"30.06"30.06"30.09"30.09"30.09"30.09"30.09"30.09"30.09"30.09"30.09"30.12"30.12"30.15"30.15"30.15"30.15"30.12"30.09"30.06"30.06"30.03"30.03"30.06"30.06"30.09"30.12"30.12"30.12"30.09"30.09"30.09"30.09"30.09"30.12"30.12"30.12"30.15"30.15"30.15"30.15"30.12"30.09"30.06"30.03"
Wind Speed 4.5 mph3.8 mph3.9 mph3.4 mph4.2 mph4.3 mph3.8 mph3.7 mph3.4 mph3.5 mph3.3 mph3.4 mph3.5 mph3.4 mph3.5 mph3.5 mph3.5 mph3.6 mph3.7 mph4 mph4.2 mph4.2 mph4.1 mph4.4 mph4.3 mph3.6 mph3.2 mph3.1 mph3 mph3.2 mph3.2 mph2.6 mph2.2 mph2.1 mph2.2 mph2.2 mph2.2 mph1.9 mph1.8 mph1.7 mph1 mph0.9 mph1.6 mph2.4 mph2.7 mph2.7 mph3.1 mph3.2 mph
Wind
Direction
331°
NNW
339°
NNW
347°
NNW
351°
N
351°
N
354°
N
353°
N

N

N

N
355°
N

N

N

N

N
359°
N

N

N
359°
N
355°
N
346°
NNW
340°
NNW
330°
NNW
331°
NNW
335°
NNW
348°
NNW
10°
N
18°
NNE
13°
NNE
13°
NNE
26°
NNE
42°
NE
66°
ENE
59°
ENE
48°
NE
49°
NE
45°
NE
53°
NE
54°
NE
52°
NE
57°
ENE
114°
ESE
165°
SSE
182°
S
198°
SSW
200°
SSW
202°
SSW
202°
SSW

Daily Forecast

Date High Low Precip. Humidity
Today
Sep 25

Clouds
78 °F
55 °F
0%
45%
Sunday
Sep 26

Clear
82 °F
57 °F
0%
46%
Monday
Sep 27

Clear
84 °F
59 °F
0%
40%
Tuesday
Sep 28

Clouds
84 °F
61 °F
0%
40%
Wednesday
Sep 29

Clouds
85 °F
62 °F
0%
40%
Thursday
Sep 30

Clouds
86 °F
63 °F
0%
42%
Friday
Oct 1

Rain
82 °F
66 °F
43%
55%
Saturday
Oct 2

Rain
81 °F
66 °F
38%
61%
Sunday
Oct 3

Clouds
85 °F
64 °F
7%
46%
Monday
Oct 4

Clouds
83 °F
61 °F
0%
38%
Tuesday
Oct 5

Rain
78 °F
65 °F
71%
63%
Wednesday
Oct 6

Rain
71 °F
61 °F
79%
71%
Thursday
Oct 7

Rain
66 °F
57 °F
33%
76%
Friday
Oct 8

Clouds
79 °F
55 °F
0%
47%
Saturday
Oct 9

Rain
79 °F
59 °F
26%
49%
Sunday
Oct 10

Clear
81 °F
56 °F
0%
39%

Temperature 8-14 Day Outlook



Precipitation 8-14 Day Outlook




Quick Links
West Point Lake News
West Point Lake Photos
West Point Lake Videos




About Us
Contact Us
Site Map
Search Site
Advertise With Us
   
www.WestPointLake.info
THE WEST POINT LAKE WEBSITE

Copyright 2021, Lakes Online
Privacy    |    Legal